LPP3001 LEJR-LIRP

Flight info

Callsign LPP3001
Flight time 2h 6m
Altitude 38000
Route PEPAS M445 SOPET M985 BCN N870 DIBER DCT EPOLO DCT MEGER DCT KONER
Aircraft E190/M-SDE3GILORVW/S

Departure

Time 2026-04-30 00:05
Airport Jerez Airport (LEJR)

Arrival

Time 2026-04-30 02:11
Airport Pisa International Airport (LIRP)
Time Latitude Longitude Altitude Speed Heading
2026-04-29 23:54 36.74886 -6.06336 95 ft 0 kts 292°
2026-04-29 23:59 36.74887 -6.06339 95 ft 1 kts 288°
2026-04-30 00:00 36.74878 -6.06364 96 ft 4 kts 211°
2026-04-30 00:00 36.74844 -6.06336 95 ft 9 kts 108°
2026-04-30 00:00 36.74796 -6.06255 93 ft 12 kts 125°
2026-04-30 00:00 36.74758 -6.06152 91 ft 12 kts 108°
2026-04-30 00:01 36.74782 -6.06074 90 ft 11 kts 25°
2026-04-30 00:01 36.74857 -6.06037 91 ft 11 kts 22°
2026-04-30 00:01 36.74927 -6.06001 92 ft 10 kts 22°
2026-04-30 00:01 36.74992 -6.05971 93 ft 9 kts 21°
2026-04-30 00:02 36.75050 -6.05943 94 ft 8 kts 21°
2026-04-30 00:02 36.75116 -6.05911 95 ft 11 kts 21°
2026-04-30 00:02 36.75194 -6.05873 95 ft 12 kts 20°
2026-04-30 00:02 36.75272 -6.05836 95 ft 12 kts 22°
2026-04-30 00:03 36.75359 -6.05792 96 ft 13 kts 21°
2026-04-30 00:03 36.75446 -6.05747 96 ft 11 kts 28°
2026-04-30 00:03 36.75461 -6.05685 97 ft 6 kts 105°
2026-04-30 00:03 36.75448 -6.05629 97 ft 7 kts 108°
2026-04-30 00:04 36.75421 -6.05575 96 ft 8 kts 148°
2026-04-30 00:04 36.75303 -6.05603 96 ft 45 kts 202°
2026-04-30 00:04 36.74773 -6.05860 89 ft 115 kts 201°
2026-04-30 00:04 36.73847 -6.06306 105 ft 165 kts 201°
2026-04-30 00:05 36.72840 -6.06963 741 ft 162 kts 222°
2026-04-30 00:05 36.72279 -6.08068 1538 ft 155 kts 259°
2026-04-30 00:05 36.72372 -6.09397 2137 ft 167 kts 296°
2026-04-30 00:05 36.73238 -6.10399 2723 ft 184 kts 339°
2026-04-30 00:06 36.74582 -6.10358 3164 ft 212 kts 23°
2026-04-30 00:06 36.75748 -6.09086 3673 ft 235 kts 50°
2026-04-30 00:06 36.76812 -6.07460 4361 ft 251 kts 51°
2026-04-30 00:06 36.77998 -6.05741 4902 ft 274 kts 43°
2026-04-30 00:07 36.79541 -6.04265 5699 ft 286 kts 33°
2026-04-30 00:07 36.80888 -6.02493 6604 ft 291 kts 65°
2026-04-30 00:07 36.81373 -6.00081 7526 ft 292 kts 88°
2026-04-30 00:07 36.81479 -5.97575 8379 ft 295 kts 90°
2026-04-30 00:08 36.81534 -5.94994 9175 ft 301 kts 91°
2026-04-30 00:08 36.81567 -5.92386 9944 ft 307 kts 92°
2026-04-30 00:08 36.81589 -5.89704 10672 ft 313 kts 92°
2026-04-30 00:08 36.81606 -5.86965 11313 ft 322 kts 92°
2026-04-30 00:09 36.81621 -5.84136 11886 ft 333 kts 92°
2026-04-30 00:09 36.81636 -5.81226 12449 ft 344 kts 92°
2026-04-30 00:09 36.81650 -5.78230 13098 ft 351 kts 92°
2026-04-30 00:09 36.81663 -5.75162 13814 ft 355 kts 92°
2026-04-30 00:10 36.81675 -5.72112 14565 ft 358 kts 92°
2026-04-30 00:10 36.81687 -5.69006 15296 ft 361 kts 91°
2026-04-30 00:10 36.81697 -5.65899 15991 ft 364 kts 91°
2026-04-30 00:10 36.81708 -5.62722 16646 ft 369 kts 91°
2026-04-30 00:11 36.81717 -5.59491 17273 ft 374 kts 91°
2026-04-30 00:11 36.81726 -5.56283 17893 ft 378 kts 91°
2026-04-30 00:11 36.81734 -5.52969 18529 ft 382 kts 91°
2026-04-30 00:11 36.81741 -5.49662 19170 ft 386 kts 91°
2026-04-30 00:12 36.81747 -5.46309 19795 ft 390 kts 91°
2026-04-30 00:12 36.81752 -5.42941 20403 ft 393 kts 91°
2026-04-30 00:12 36.81757 -5.39521 21002 ft 397 kts 91°
2026-04-30 00:12 36.81760 -5.36078 21586 ft 401 kts 91°
2026-04-30 00:13 36.81763 -5.32595 22150 ft 405 kts 92°
2026-04-30 00:13 36.81764 -5.29049 22702 ft 409 kts 92°
2026-04-30 00:13 36.81764 -5.25534 23252 ft 412 kts 92°
2026-04-30 00:13 36.81764 -5.21938 23779 ft 416 kts 92°
2026-04-30 00:14 36.81761 -5.18361 24290 ft 420 kts 92°
2026-04-30 00:14 36.81757 -5.14701 24805 ft 423 kts 92°
2026-04-30 00:14 36.81753 -5.11046 25335 ft 426 kts 92°
2026-04-30 00:14 36.81747 -5.07302 25831 ft 430 kts 92°
2026-04-30 00:15 36.81740 -5.03621 26298 ft 434 kts 92°
2026-04-30 00:15 36.81731 -4.99852 26784 ft 437 kts 92°
2026-04-30 00:15 36.81722 -4.96024 27277 ft 440 kts 92°
2026-04-30 00:15 36.81711 -4.92216 27753 ft 443 kts 92°
2026-04-30 00:16 36.81699 -4.88355 28223 ft 446 kts 92°
2026-04-30 00:16 36.81685 -4.84438 28683 ft 449 kts 92°
2026-04-30 00:16 36.81670 -4.80542 29115 ft 452 kts 92°
2026-04-30 00:16 36.81654 -4.76618 29556 ft 455 kts 92°
2026-04-30 00:17 36.81636 -4.72678 29994 ft 458 kts 92°
2026-04-30 00:17 36.81617 -4.68705 30426 ft 460 kts 92°
2026-04-30 00:17 36.81596 -4.64715 30839 ft 463 kts 92°
2026-04-30 00:17 36.81574 -4.60696 31252 ft 466 kts 92°
2026-04-30 00:18 36.81551 -4.56652 31632 ft 469 kts 92°
2026-04-30 00:18 36.81526 -4.52639 32066 ft 470 kts 92°
2026-04-30 00:18 36.81499 -4.48510 32571 ft 470 kts 92°
2026-04-30 00:18 36.81471 -4.44460 33100 ft 468 kts 92°
2026-04-30 00:19 36.81576 -4.40424 33617 ft 468 kts 84°
2026-04-30 00:19 36.82180 -4.36454 34147 ft 467 kts 75°
2026-04-30 00:19 36.83233 -4.32647 34669 ft 466 kts 66°
2026-04-30 00:19 36.84758 -4.29073 35188 ft 465 kts 58°
2026-04-30 00:20 36.86366 -4.25581 35692 ft 464 kts 60°
2026-04-30 00:20 36.87919 -4.22073 36188 ft 464 kts 60°
2026-04-30 00:20 36.89461 -4.18547 36670 ft 463 kts 61°
2026-04-30 00:20 36.90999 -4.15016 37130 ft 463 kts 60°
2026-04-30 00:21 36.92532 -4.11491 37594 ft 463 kts 60°
2026-04-30 00:21 36.94041 -4.08018 37996 ft 460 kts 60°
2026-04-30 00:21 36.95566 -4.04502 38023 ft 461 kts 60°
2026-04-30 00:22 36.98654 -3.97373 38053 ft 477 kts 60°
2026-04-30 00:22 37.01867 -3.89938 38055 ft 491 kts 60°
2026-04-30 00:23 37.05078 -3.82491 38053 ft 490 kts 60°
2026-04-30 00:23 37.08315 -3.74966 38058 ft 488 kts 60°
2026-04-30 00:24 37.11517 -3.67506 38057 ft 488 kts 60°
2026-04-30 00:24 37.14745 -3.59976 38065 ft 489 kts 59°
2026-04-30 00:25 37.18863 -3.53294 38081 ft 484 kts 42°
2026-04-30 00:25 37.23564 -3.47277 38082 ft 485 kts 43°
2026-04-30 00:26 37.28237 -3.41226 38072 ft 486 kts 43°
2026-04-30 00:26 37.32937 -3.35124 38073 ft 485 kts 43°
2026-04-30 00:27 37.37644 -3.29002 38058 ft 487 kts 44°
2026-04-30 00:27 37.42324 -3.22903 38052 ft 487 kts 44°
2026-04-30 00:28 37.47015 -3.16779 38053 ft 487 kts 44°
2026-04-30 00:28 37.51713 -3.10633 38053 ft 488 kts 44°
2026-04-30 00:29 37.56407 -3.04481 38057 ft 486 kts 44°
2026-04-30 00:29 37.61083 -2.98341 38057 ft 487 kts 44°
2026-04-30 00:30 37.65765 -2.92183 38056 ft 487 kts 44°
2026-04-30 00:30 37.70460 -2.85995 38048 ft 488 kts 44°
2026-04-30 00:31 37.75126 -2.79833 38047 ft 489 kts 44°
2026-04-30 00:31 37.79824 -2.73617 38048 ft 489 kts 44°
2026-04-30 00:32 37.84530 -2.67379 38056 ft 491 kts 44°
2026-04-30 00:32 37.89230 -2.61136 38074 ft 490 kts 43°
2026-04-30 00:33 37.93887 -2.54937 38085 ft 490 kts 44°
2026-04-30 00:33 37.98573 -2.48689 38094 ft 490 kts 44°
2026-04-30 00:34 38.03269 -2.42413 38091 ft 490 kts 43°
2026-04-30 00:34 38.07956 -2.36139 38084 ft 490 kts 44°
2026-04-30 00:35 38.12641 -2.29854 38055 ft 491 kts 44°
2026-04-30 00:35 38.17348 -2.23526 38033 ft 492 kts 44°
2026-04-30 00:36 38.21944 -2.17050 38043 ft 494 kts 50°
2026-04-30 00:36 38.26198 -2.10178 38036 ft 495 kts 50°
2026-04-30 00:37 38.30439 -2.03323 38031 ft 494 kts 50°
2026-04-30 00:37 38.34686 -1.96445 38022 ft 495 kts 50°
2026-04-30 00:38 38.38921 -1.89572 38032 ft 495 kts 50°
2026-04-30 00:38 38.43148 -1.82698 38017 ft 494 kts 50°
2026-04-30 00:39 38.47399 -1.75770 38017 ft 494 kts 50°
2026-04-30 00:39 38.51618 -1.68878 38017 ft 495 kts 50°
2026-04-30 00:40 38.55850 -1.61951 38026 ft 495 kts 50°
2026-04-30 00:40 38.60053 -1.55057 38022 ft 495 kts 50°
2026-04-30 00:41 38.64270 -1.48125 38027 ft 497 kts 50°
2026-04-30 00:41 38.68514 -1.41134 38027 ft 496 kts 50°
2026-04-30 00:42 38.72708 -1.34210 38028 ft 496 kts 50°
2026-04-30 00:42 38.76928 -1.27232 38018 ft 496 kts 50°
2026-04-30 00:43 38.81137 -1.20258 38015 ft 496 kts 50°
2026-04-30 00:43 38.85328 -1.13298 38019 ft 495 kts 50°
2026-04-30 00:44 38.89522 -1.06317 38019 ft 495 kts 50°
2026-04-30 00:44 38.93711 -0.99330 38017 ft 496 kts 50°
2026-04-30 00:45 38.97929 -0.92280 38015 ft 497 kts 50°
2026-04-30 00:45 39.02121 -0.85258 38014 ft 496 kts 50°
2026-04-30 00:46 39.06335 -0.78284 38008 ft 495 kts 45°
2026-04-30 00:46 39.11410 -0.72413 38026 ft 492 kts 36°
2026-04-30 00:47 39.16629 -0.66868 38014 ft 491 kts 36°
2026-04-30 00:47 39.21891 -0.61253 38017 ft 491 kts 36°
2026-04-30 00:48 39.27156 -0.55624 38011 ft 493 kts 36°
2026-04-30 00:48 39.32550 -0.50273 38016 ft 491 kts 33°
2026-04-30 00:49 39.38012 -0.44975 37780 ft 490 kts 33°
2026-04-30 00:49 39.40726 -0.42335 38048 ft 491 kts 33°
2026-04-30 00:49 39.43456 -0.39676 38006 ft 493 kts 33°
2026-04-30 00:50 39.48912 -0.34353 38016 ft 493 kts 34°
2026-04-30 00:50 39.54401 -0.28988 38004 ft 493 kts 34°
2026-04-30 00:51 39.59864 -0.23637 38000 ft 492 kts 34°
2026-04-30 00:51 39.65288 -0.18314 38005 ft 493 kts 34°
2026-04-30 00:52 39.70763 -0.12930 37991 ft 493 kts 34°
2026-04-30 00:52 39.76205 -0.07567 37993 ft 493 kts 34°
2026-04-30 00:53 39.81619 -0.02222 37989 ft 493 kts 34°
2026-04-30 00:53 39.86607 0.03989 37994 ft 496 kts 44°
2026-04-30 00:54 39.91289 0.10495 37988 ft 496 kts 44°
2026-04-30 00:54 39.95987 0.17035 37994 ft 496 kts 44°
2026-04-30 00:55 40.00691 0.23597 37991 ft 495 kts 44°
2026-04-30 00:55 40.07718 0.33414 38000 ft 495 kts 44°
2026-04-30 00:56 40.12413 0.39991 37992 ft 495 kts 44°
2026-04-30 00:56 40.17027 0.46469 37989 ft 496 kts 45°
2026-04-30 00:57 40.21714 0.53063 37995 ft 496 kts 44°
2026-04-30 00:57 40.26392 0.59658 38001 ft 496 kts 44°
2026-04-30 00:58 40.31077 0.66282 37993 ft 494 kts 45°
2026-04-30 00:58 40.35751 0.72903 37988 ft 494 kts 45°
2026-04-30 00:59 40.40403 0.79510 37988 ft 494 kts 45°
2026-04-30 00:59 40.45037 0.86104 37992 ft 493 kts 45°
2026-04-30 01:00 40.49672 0.92715 37988 ft 494 kts 45°
2026-04-30 01:00 40.54302 0.99333 37991 ft 493 kts 45°
2026-04-30 01:01 40.58944 1.05990 37992 ft 493 kts 45°
2026-04-30 01:01 40.63530 1.12584 37993 ft 493 kts 45°
2026-04-30 01:02 40.68145 1.19232 37990 ft 491 kts 45°
2026-04-30 01:02 40.72757 1.25888 37994 ft 491 kts 45°
2026-04-30 01:03 40.77342 1.32513 37998 ft 491 kts 45°
2026-04-30 01:03 40.81922 1.39146 37998 ft 491 kts 45°
2026-04-30 01:04 40.86494 1.45782 37995 ft 491 kts 45°
2026-04-30 01:04 40.91081 1.52459 37994 ft 490 kts 45°
2026-04-30 01:05 40.95623 1.59087 38000 ft 489 kts 45°
2026-04-30 01:05 41.00175 1.65743 38000 ft 488 kts 46°
2026-04-30 01:06 41.04735 1.72426 37998 ft 487 kts 46°
2026-04-30 01:06 41.09269 1.79082 37999 ft 487 kts 46°
2026-04-30 01:07 41.13750 1.85676 38000 ft 487 kts 46°
2026-04-30 01:07 41.18343 1.92450 38000 ft 487 kts 46°
2026-04-30 01:08 41.22871 1.99143 38002 ft 486 kts 46°
2026-04-30 01:08 41.27374 2.05814 38010 ft 486 kts 46°
2026-04-30 01:09 41.31426 2.12946 38022 ft 489 kts 60°
2026-04-30 01:09 41.34322 2.21120 38014 ft 489 kts 64°
2026-04-30 01:10 41.37149 2.29269 38014 ft 488 kts 64°
2026-04-30 01:10 41.39987 2.37466 38006 ft 487 kts 64°
2026-04-30 01:11 41.42796 2.45604 37999 ft 486 kts 64°
2026-04-30 01:11 41.45624 2.53823 38001 ft 486 kts 64°
2026-04-30 01:12 41.48408 2.61935 38005 ft 484 kts 64°
2026-04-30 01:12 41.51209 2.70121 37998 ft 484 kts 64°
2026-04-30 01:13 41.53975 2.78227 37998 ft 483 kts 64°
2026-04-30 01:13 41.56760 2.86414 38003 ft 483 kts 64°
2026-04-30 01:14 41.59517 2.94542 38001 ft 482 kts 64°
2026-04-30 01:14 41.62280 3.02716 38022 ft 479 kts 64°
2026-04-30 01:15 41.65008 3.10805 38006 ft 481 kts 64°
2026-04-30 01:15 41.67724 3.18883 37986 ft 483 kts 64°
2026-04-30 01:16 41.70473 3.27087 38000 ft 481 kts 64°
2026-04-30 01:16 41.73183 3.35195 38004 ft 481 kts 64°
2026-04-30 01:17 41.75902 3.43351 38009 ft 481 kts 64°
2026-04-30 01:17 41.78601 3.51476 38009 ft 479 kts 64°
2026-04-30 01:18 41.81309 3.59648 38005 ft 479 kts 64°
2026-04-30 01:18 41.83999 3.67793 37990 ft 479 kts 64°
2026-04-30 01:19 41.86681 3.75936 37994 ft 480 kts 64°
2026-04-30 01:19 41.89359 3.84092 37989 ft 481 kts 64°
2026-04-30 01:20 41.92039 3.92281 37994 ft 480 kts 64°
2026-04-30 01:20 41.94708 4.00460 37991 ft 478 kts 64°
2026-04-30 01:21 41.97349 4.08580 37988 ft 477 kts 64°
2026-04-30 01:21 42.00000 4.16753 37991 ft 478 kts 64°
2026-04-30 01:22 42.02641 4.24923 38005 ft 477 kts 64°
2026-04-30 01:22 42.05265 4.33064 38009 ft 477 kts 64°
2026-04-30 01:23 42.07899 4.41262 38010 ft 476 kts 64°
2026-04-30 01:23 42.10947 4.49100 38013 ft 475 kts 59°
2026-04-30 01:24 42.13988 4.56837 38012 ft 476 kts 59°
2026-04-30 01:24 42.17075 4.64742 38013 ft 475 kts 59°
2026-04-30 01:25 42.20142 4.72619 38010 ft 474 kts 60°
2026-04-30 01:25 42.23196 4.80486 38014 ft 474 kts 60°
2026-04-30 01:26 42.26232 4.88326 38017 ft 474 kts 60°
2026-04-30 01:26 42.29274 4.96205 38014 ft 473 kts 60°
2026-04-30 01:27 42.32301 5.04064 38017 ft 473 kts 60°
2026-04-30 01:27 42.35326 5.11940 38014 ft 472 kts 60°
2026-04-30 01:28 42.38325 5.19769 38018 ft 472 kts 60°
2026-04-30 01:28 42.41321 5.27614 38018 ft 471 kts 60°
2026-04-30 01:29 42.44320 5.35486 38019 ft 471 kts 60°
2026-04-30 01:29 42.47296 5.43321 38020 ft 471 kts 60°
2026-04-30 01:30 42.50285 5.51211 38022 ft 470 kts 60°
2026-04-30 01:30 42.53249 5.59056 38023 ft 470 kts 60°
2026-04-30 01:31 42.56211 5.66920 38020 ft 470 kts 61°
2026-04-30 01:31 42.59180 5.74821 38018 ft 470 kts 60°
2026-04-30 01:32 42.62123 5.82677 38020 ft 468 kts 61°
2026-04-30 01:32 42.65057 5.90529 38023 ft 467 kts 61°
2026-04-30 01:33 42.67980 5.98375 38026 ft 468 kts 61°
2026-04-30 01:33 42.70898 6.06227 38021 ft 467 kts 60°
2026-04-30 01:34 42.73801 6.14063 38020 ft 467 kts 61°
2026-04-30 01:34 42.76712 6.21941 38021 ft 467 kts 61°
2026-04-30 01:35 42.79620 6.29832 38020 ft 466 kts 61°
2026-04-30 01:35 42.82502 6.37677 38023 ft 466 kts 61°
2026-04-30 01:36 42.85392 6.45564 38015 ft 465 kts 61°
2026-04-30 01:36 42.88130 6.53475 38019 ft 467 kts 68°
2026-04-30 01:37 42.89830 6.61996 38016 ft 468 kts 74°
2026-04-30 01:37 42.91402 6.70633 38018 ft 468 kts 75°
2026-04-30 01:38 42.92948 6.79194 38003 ft 468 kts 75°
2026-04-30 01:38 42.94495 6.87797 38009 ft 468 kts 75°
2026-04-30 01:39 42.96031 6.96375 38015 ft 467 kts 74°
2026-04-30 01:39 42.97565 7.04986 38006 ft 467 kts 74°
2026-04-30 01:40 42.99084 7.13551 38012 ft 467 kts 74°
2026-04-30 01:40 43.00602 7.22153 38008 ft 468 kts 74°
2026-04-30 01:41 43.02121 7.30798 38009 ft 467 kts 74°
2026-04-30 01:41 43.03619 7.39368 38011 ft 467 kts 74°
2026-04-30 01:42 43.05123 7.48020 38010 ft 467 kts 74°
2026-04-30 01:42 43.06583 7.56449 37997 ft 448 kts 74°
2026-04-30 01:43 43.08004 7.64689 38006 ft 449 kts 74°
2026-04-30 01:43 43.08729 7.68910 37541 ft 452 kts 75°
2026-04-30 01:43 43.09438 7.73049 37073 ft 451 kts 75°
2026-04-30 01:44 43.10149 7.77209 36590 ft 450 kts 75°
2026-04-30 01:44 43.10858 7.81370 36142 ft 451 kts 75°
2026-04-30 01:44 43.11581 7.85620 35637 ft 452 kts 75°
2026-04-30 01:44 43.12291 7.89802 35131 ft 453 kts 75°
2026-04-30 01:45 43.13007 7.94028 34640 ft 453 kts 75°
2026-04-30 01:45 43.13718 7.98237 34094 ft 454 kts 75°
2026-04-30 01:45 43.14423 8.02420 33608 ft 456 kts 75°
2026-04-30 01:45 43.15132 8.06643 33094 ft 456 kts 75°
2026-04-30 01:46 43.15850 8.10926 32593 ft 458 kts 75°
2026-04-30 01:46 43.16554 8.15132 32091 ft 459 kts 75°
2026-04-30 01:46 43.17265 8.19392 31582 ft 460 kts 75°
2026-04-30 01:46 43.17970 8.23627 31075 ft 460 kts 75°
2026-04-30 01:47 43.18677 8.27887 30567 ft 458 kts 75°
2026-04-30 01:47 43.19382 8.32145 30048 ft 454 kts 75°
2026-04-30 01:47 43.20067 8.36286 29573 ft 451 kts 75°
2026-04-30 01:47 43.20754 8.40455 29076 ft 448 kts 75°
2026-04-30 01:48 43.21435 8.44598 28581 ft 444 kts 75°
2026-04-30 01:48 43.22102 8.48663 28097 ft 441 kts 75°
2026-04-30 01:48 43.22770 8.52747 27614 ft 438 kts 75°
2026-04-30 01:48 43.23434 8.56811 27131 ft 434 kts 75°
2026-04-30 01:49 43.24083 8.60797 26666 ft 431 kts 75°
2026-04-30 01:49 43.24738 8.64826 26183 ft 429 kts 75°
2026-04-30 01:49 43.25377 8.68766 25713 ft 426 kts 75°
2026-04-30 01:49 43.25997 8.72602 25264 ft 424 kts 75°
2026-04-30 01:50 43.26638 8.76576 24793 ft 422 kts 75°
2026-04-30 01:50 43.27265 8.80467 24333 ft 420 kts 75°
2026-04-30 01:50 43.27884 8.84317 23874 ft 417 kts 75°
2026-04-30 01:50 43.28501 8.88173 23416 ft 414 kts 75°
2026-04-30 01:51 43.29120 8.92040 22966 ft 411 kts 75°
2026-04-30 01:51 43.29722 8.95815 22516 ft 408 kts 75°
2026-04-30 01:51 43.30323 8.99590 22069 ft 405 kts 75°
2026-04-30 01:51 43.30922 9.03365 21625 ft 401 kts 75°
2026-04-30 01:52 43.31510 9.07076 21186 ft 398 kts 75°
2026-04-30 01:52 43.32093 9.10764 20750 ft 395 kts 75°
2026-04-30 01:52 43.32673 9.14437 20316 ft 392 kts 75°
2026-04-30 01:52 43.33440 9.17935 19883 ft 384 kts 59°
2026-04-30 01:53 43.34871 9.21044 19469 ft 380 kts 53°
2026-04-30 01:53 43.36338 9.24033 19047 ft 377 kts 53°
2026-04-30 01:53 43.37781 9.26978 18639 ft 374 kts 53°
2026-04-30 01:53 43.39233 9.29942 18226 ft 371 kts 53°
2026-04-30 01:54 43.40657 9.32851 17821 ft 369 kts 53°
2026-04-30 01:54 43.42090 9.35782 17415 ft 367 kts 53°
2026-04-30 01:54 43.43503 9.38677 17011 ft 364 kts 53°
2026-04-30 01:54 43.44915 9.41572 16609 ft 361 kts 53°
2026-04-30 01:55 43.46310 9.44433 16214 ft 358 kts 53°
2026-04-30 01:55 43.47677 9.47242 15829 ft 355 kts 53°
2026-04-30 01:55 43.49055 9.50073 15436 ft 353 kts 53°
2026-04-30 01:55 43.50354 9.52923 15038 ft 352 kts 64°
2026-04-30 01:56 43.51127 9.56072 14741 ft 341 kts 71°
2026-04-30 01:56 43.51791 9.59124 14368 ft 330 kts 71°
2026-04-30 01:56 43.52438 9.62117 14011 ft 320 kts 71°
2026-04-30 01:56 43.53054 9.64976 13669 ft 310 kts 71°
2026-04-30 01:57 43.53669 9.67838 13326 ft 304 kts 72°
2026-04-30 01:57 43.54266 9.70620 12999 ft 303 kts 72°
2026-04-30 01:57 43.54855 9.73370 12684 ft 298 kts 72°
2026-04-30 01:57 43.55433 9.76074 12357 ft 291 kts 72°
2026-04-30 01:58 43.55998 9.78716 12045 ft 287 kts 72°
2026-04-30 01:58 43.56559 9.81346 11738 ft 286 kts 72°
2026-04-30 01:58 43.57113 9.83943 11476 ft 280 kts 72°
2026-04-30 01:58 43.57657 9.86503 11186 ft 272 kts 72°
2026-04-30 01:59 43.58691 9.91372 10611 ft 259 kts 72°
2026-04-30 01:59 43.59192 9.93731 10329 ft 257 kts 72°
2026-04-30 01:59 43.59848 9.95988 10049 ft 254 kts 49°
2026-04-30 02:00 43.61229 9.97466 9698 ft 258 kts 19°
2026-04-30 02:00 43.62957 9.97896 9365 ft 250 kts
2026-04-30 02:00 43.64629 9.98392 9345 ft 244 kts 28°
2026-04-30 02:00 43.65787 10.00096 9407 ft 251 kts 66°
2026-04-30 02:01 43.65952 10.02472 9488 ft 257 kts 104°
2026-04-30 02:01 43.65041 10.04552 9562 ft 260 kts 141°
2026-04-30 02:01 43.63434 10.05653 9639 ft 260 kts 161°
2026-04-30 02:01 43.61690 10.06447 9657 ft 261 kts 162°
2026-04-30 02:02 43.59978 10.07224 9676 ft 262 kts 162°
2026-04-30 02:02 43.58210 10.07874 9653 ft 261 kts 167°
2026-04-30 02:02 43.56436 10.08462 9634 ft 262 kts 167°
2026-04-30 02:02 43.54660 10.09049 9073 ft 265 kts 167°
2026-04-30 02:03 43.52895 10.09623 8545 ft 257 kts 167°
2026-04-30 02:03 43.51180 10.10171 8032 ft 249 kts 167°
2026-04-30 02:03 43.49526 10.10698 7523 ft 243 kts 167°
2026-04-30 02:03 43.47901 10.11227 7012 ft 236 kts 156°
2026-04-30 02:04 43.46697 10.12632 6553 ft 228 kts 114°
2026-04-30 02:04 43.46491 10.14686 6189 ft 214 kts 73°
2026-04-30 02:04 43.46973 10.16558 5762 ft 206 kts 73°
2026-04-30 02:04 43.47666 10.18199 5265 ft 203 kts 37°
2026-04-30 02:05 43.48818 10.19280 4799 ft 199 kts 38°
2026-04-30 02:05 43.49912 10.20415 4300 ft 197 kts 38°
2026-04-30 02:05 43.51002 10.21540 3813 ft 196 kts 38°
2026-04-30 02:05 43.52080 10.22648 3317 ft 194 kts 38°
2026-04-30 02:06 43.53131 10.23725 3081 ft 180 kts 38°
2026-04-30 02:06 43.54100 10.24719 3005 ft 165 kts 38°
2026-04-30 02:06 43.54989 10.25655 2947 ft 156 kts 39°
2026-04-30 02:06 43.55825 10.26532 2875 ft 146 kts 39°
2026-04-30 02:07 43.56636 10.27373 2688 ft 146 kts 39°
2026-04-30 02:07 43.57447 10.28208 2495 ft 146 kts 39°
2026-04-30 02:07 43.58254 10.29037 2291 ft 147 kts 38°
2026-04-30 02:07 43.59058 10.29860 2073 ft 137 kts 38°
2026-04-30 02:08 43.59776 10.30596 1873 ft 119 kts 38°
2026-04-30 02:08 43.60419 10.31255 1707 ft 115 kts 38°
2026-04-30 02:08 43.61062 10.31915 1577 ft 116 kts 38°
2026-04-30 02:08 43.61717 10.32588 1432 ft 118 kts 38°
2026-04-30 02:09 43.62381 10.33273 1275 ft 119 kts 38°
2026-04-30 02:09 43.63045 10.33952 1114 ft 119 kts 38°
2026-04-30 02:09 43.63712 10.34635 951 ft 119 kts 38°
2026-04-30 02:09 43.64376 10.35318 789 ft 119 kts 38°
2026-04-30 02:10 43.65039 10.36000 627 ft 119 kts 37°
2026-04-30 02:10 43.65712 10.36689 464 ft 120 kts 37°
2026-04-30 02:10 43.66386 10.37383 288 ft 121 kts 37°
2026-04-30 02:10 43.67067 10.38071 112 ft 123 kts 37°
2026-04-30 02:11 43.67752 10.38775 13 ft 121 kts 38°
2026-04-30 02:11 43.68348 10.39397 6 ft 87 kts 37°
2026-04-30 02:11 43.68722 10.39780 6 ft 46 kts 36°
2026-04-30 02:11 43.68873 10.39936 6 ft 8 kts 37°
2026-04-30 02:12 43.68892 10.39957 6 ft 6 kts 37°
2026-04-30 02:12 43.68956 10.40024 7 ft 15 kts 37°
2026-04-30 02:12 43.69047 10.40118 7 ft 16 kts 37°
2026-04-30 02:12 43.69145 10.40219 7 ft 18 kts 37°
2026-04-30 02:13 43.69243 10.40304 8 ft 9 kts
2026-04-30 02:13 43.69297 10.40262 8 ft 8 kts 309°
2026-04-30 02:13 43.69334 10.40200 8 ft 8 kts 311°
2026-04-30 02:13 43.69375 10.40137 8 ft 10 kts 314°
2026-04-30 02:14 43.69441 10.40094 8 ft 10 kts 351°
2026-04-30 02:14 43.69515 10.40081 8 ft 11 kts 353°
2026-04-30 02:14 43.69595 10.40065 9 ft 11 kts 348°
2026-04-30 02:14 43.69656 10.40003 9 ft 10 kts 289°
2026-04-30 02:15 43.69699 10.39959 9 ft 6 kts
2026-04-30 02:15 43.69747 10.39970 9 ft 5 kts
2026-04-30 02:15 43.69762 10.39974 9 ft 0 kts